Regional Weather Roundup
Issued by NWS

Home | Current Version | Previous Version | Graphics & Text | Print | Product List | Glossary On
Versions: 1 2 3 4 5 6 7 8 9 10 11 12 13 14 15 16 17 18 19 20 21 22 23 24 25 26 27 28 29 30 31 32 33 34 35 36 37 38 39 40 41 42 43 44 45 46 47 48 49 50
000
ASUS43 KLMK 230002
RWRKY
KENTUCKY REGIONAL WEATHER ROUNDUP
NATIONAL WEATHER SERVICE LOUISVILLE KY
800 PM EDT SAT JUL 22 2017

NOTE "FAIR" INDICATES FEW OR NO CLOUDS BELOW 12,000 FEET
WITH NO SIGNIFICANT WEATHER AND/OR OBSTRUCTIONS TO VISIBILITY.

KYZ001>023-026-027-061>063-070>075-230100-
WESTERN AND SOUTH CENTRAL KENTUCKY

CITY           SKY/WX    TMP DP  RH WIND       PRES   REMARKS
PADUCAH        FAIR      91  74  57 SW8       29.83F HX 100
HENDERSON      FAIR      91  75  59 SW8       29.82R HX 101
OWENSBORO      FAIR      91  76  61 SW10      29.82S HX 103
HOPKINSVILLE   NOT AVBL
BOWLING GREEN  FAIR      93  73  52 SW12      29.85S HX 102
GLASGOW        NOT AVBL
$$

KYZ024-025-028>034-038-045-046-053-230100-
NORTH CENTRAL KENTUCKY

CITY           SKY/WX    TMP DP  RH WIND       PRES   REMARKS
LOUISVILLE/SDF FAIR      93  74  53 W12       29.82R HX 103
LOUISVILLE/LOU FAIR      93  74  53 SW13G21   29.82S HX 103
FORT KNOX      NOT AVBL
$$

KYZ035>037-039>044-047>052-055>060-089>105-230100-
NORTHEAST KENTUCKY

CITY           SKY/WX    TMP DP  RH WIND       PRES   REMARKS
LEXINGTON      FAIR      89  73  59 W6        29.87R HX  97
COVINGTON      TSTM      78  77  96 NW7G18    29.84R FOG
FRANKFORT      FAIR      89  74  60 SW6       29.84R HX  98
$$

KYZ054-064>069-076>088-106>120-230100-
SOUTHEAST KENTUCKY

CITY           SKY/WX    TMP DP  RH WIND       PRES   REMARKS
JACKSON        FAIR      88  71  57 VRB3      29.90R HX  94
LONDON         FAIR      90  70  51 SW7       29.91R HX  95
SOMERSET       NOT AVBL
MIDDLESBORO    FAIR      89  74  60 CALM      29.92R HX  97
MONTICELLO     FAIR      88  76  67 W14       29.91R HX  99
$$





USA.gov is the U.S. government's official web portal to all federal, state and local government web resources and services.